Date String (YYYY-MM-DD hh:mm:ss) UTC,Instrument flags,absolute air pressure of the measurement (hPa),sample flow rate (lpm),inlet stack bypass flow (lpm),air temperature of the measurement (°C),ambient temperature measured by the external sensor (°C),aerosol sample conditioner tube jacket temperature (°C),OPC LED temperature (°C),internal box temperature (°C),relative humidity of the measurement (%),span deviation,mass concentration of particles derived from Lorenz-Mie calculation of OPC scattering (μg/m³),mass concentration of particles derived from Lorenz-Mie calculation of OPC scattering (μg/m³),mass concentration of particles derived from Lorenz-Mie calculation of OPC scattering (μg/m³)
DateTimeUTC,F1_M11,P_M11,Q1_M11,Q2_M11,T1_M11,T2_M11,T3_M11,T4_M11,T5_M11,U1_M11,ZSPAN_M11,X0_M11,X2_M11,X1_M11
2023-09-18 10:00:00,SystemResetWarning,0831.3,4.99,000.00,028.7,027.5,000.0,036.8,030.4,14.1,0000.0,0003.09,0002.19,0001.81
2023-09-18 10:01:00,SystemResetWarning,0831.3,4.99,000.00,028.7,027.5,000.0,036.9,030.4,14.0,0000.0,0003.46,0002.18,0001.82
2023-09-18 10:02:00,SystemResetWarning,0831.3,5.00,000.00,028.7,027.5,000.0,036.9,030.4,14.0,0000.0,0003.58,0002.20,0001.83
2023-09-18 10:03:00,SystemResetWarning,0831.3,5.00,000.00,028.7,027.4,000.0,036.9,030.4,13.9,0000.0,0003.94,0002.25,0001.84
2023-09-18 10:04:00,SystemResetWarning,0831.2,5.00,000.00,028.7,027.2,000.0,036.9,030.3,13.9,0000.0,0003.92,0002.23,0001.85
2023-09-18 10:05:00,SystemResetWarning,0831.2,5.00,000.00,028.6,025.5,000.0,036.8,029.8,13.9,0000.0,0003.94,0002.23,0001.87
2023-09-18 10:06:00,SystemResetWarning,0831.1,5.00,000.00,028.5,024.5,000.0,036.8,029.6,14.0,0000.0,0004.16,0002.27,0001.89
2023-09-18 10:07:00,SystemResetWarning,0831.1,5.01,000.00,028.4,024.5,000.0,036.8,029.5,13.8,0000.0,0004.23,0002.27,0001.89
2023-09-18 10:08:00,SystemResetWarning,0831.1,5.00,000.00,028.3,024.8,000.0,036.8,029.4,14.1,0000.0,0004.15,0002.24,0001.87
2023-09-18 10:09:00,SystemResetWarning,0831.2,4.99,000.00,028.2,025.1,000.0,036.8,029.5,14.0,0000.0,0004.06,0002.20,0001.87
2023-09-18 10:10:00,SystemResetWarning,0831.1,5.00,000.00,028.2,025.4,000.0,036.7,029.6,14.1,0000.0,0004.07,0002.21,0001.87
2023-09-18 10:11:00,SystemResetWarning,0831.1,5.01,000.00,028.2,025.7,000.0,036.7,029.6,14.1,0000.0,0004.17,0002.25,0001.89
2023-09-18 10:12:00,SystemResetWarning,0831.1,5.01,000.00,028.2,026.0,000.0,036.7,029.7,14.3,0000.0,0003.64,0002.25,0001.89
2023-09-18 10:13:00,SystemResetWarning,0831.1,5.00,000.00,028.2,026.2,000.0,036.7,029.7,13.9,0000.0,0003.69,0002.26,0001.88
2023-09-18 10:14:00,SystemResetWarning,0831.1,4.99,000.00,028.2,026.4,000.0,036.7,029.8,14.4,0000.0,0003.47,0002.26,0001.87
2023-09-18 10:15:00,SystemResetWarning,0831.2,5.00,000.00,028.2,026.5,000.0,036.6,029.8,14.3,0000.0,0003.31,0002.26,0001.87
2023-09-18 10:16:00,SystemResetWarning,0831.2,4.99,000.00,028.2,026.6,000.0,036.6,029.9,14.1,0000.0,0003.31,0002.26,0001.87
2023-09-18 10:17:00,SystemResetWarning,0831.2,5.01,000.00,028.3,026.7,000.0,036.6,029.9,14.2,0000.0,0003.26,0002.25,0001.86
2023-09-18 10:18:00,SystemResetWarning,0831.2,5.00,000.00,028.3,026.8,000.0,036.6,030.0,14.4,0000.0,0003.03,0002.21,0001.85
2023-09-18 10:19:00,SystemResetWarning,0831.2,4.99,000.00,028.3,026.9,000.0,036.6,030.0,14.6,0000.0,0003.04,0002.22,0001.86
2023-09-18 10:20:00,SystemResetWarning,0831.2,5.00,000.00,028.3,026.9,000.0,036.6,030.0,14.7,0000.0,0003.45,0002.27,0001.86
2023-09-18 10:21:00,SystemResetWarning,0831.3,5.00,000.00,028.3,027.0,000.0,036.6,030.0,14.7,0000.0,0004.44,0002.32,0001.86
2023-09-18 10:22:00,SystemResetWarning,0831.3,5.00,000.00,028.4,027.0,000.0,036.6,030.0,14.7,0000.0,0004.52,0002.37,0001.86
2023-09-18 10:23:00,SystemResetWarning,0831.3,5.00,000.00,028.4,027.1,000.0,036.6,030.1,14.6,0000.0,0004.52,0002.38,0001.86
2023-09-18 10:24:00,SystemResetWarning,0831.2,5.00,000.00,028.4,027.1,000.0,036.7,030.1,14.6,0000.0,0004.41,0002.35,0001.86
2023-09-18 10:25:00,SystemResetWarning,0831.2,5.00,000.00,028.4,027.1,000.0,036.7,030.1,14.7,0000.0,0004.24,0002.29,0001.85
2023-09-18 10:26:00,SystemResetWarning,0831.2,5.00,000.00,028.4,027.2,000.0,036.7,030.1,14.6,0000.0,0004.26,0002.28,0001.85
2023-09-18 10:27:00,SystemResetWarning,0831.2,4.99,000.00,028.5,027.2,000.0,036.7,030.2,14.5,0000.0,0004.38,0002.30,0001.83
2023-09-18 10:28:00,SystemResetWarning,0831.2,5.00,000.00,028.5,027.2,000.0,036.7,030.2,14.6,0000.0,0004.31,0002.28,0001.82
2023-09-18 10:29:00,SystemResetWarning,0831.3,5.00,000.00,028.5,027.3,000.0,036.7,030.2,14.6,0000.0,0004.82,0002.27,0001.81
2023-09-18 10:30:00,SystemResetWarning,0831.3,5.00,000.00,028.5,027.3,000.0,036.8,030.2,14.6,0000.0,0005.17,0002.29,0001.81
2023-09-18 10:31:00,SystemResetWarning,0831.3,5.00,000.00,028.6,027.3,000.0,036.8,030.2,14.6,0000.0,0004.95,0002.25,0001.81
2023-09-18 10:32:00,SystemResetWarning,0831.3,5.01,000.00,028.6,027.3,000.0,036.8,030.3,15.0,0000.0,0003.92,0002.23,0001.80
2023-09-18 10:33:00,SystemResetWarning,0831.3,5.00,000.00,028.6,027.3,000.0,036.8,030.3,15.1,0000.0,0003.89,0002.15,0001.80
2023-09-18 10:34:00,SystemResetWarning,0831.3,5.00,000.00,028.6,027.4,000.0,036.8,030.3,14.7,0000.0,0004.21,0002.16,0001.79
2023-09-18 10:35:00,SystemResetWarning,0831.3,4.99,000.00,028.6,027.4,000.0,036.8,030.3,14.5,0000.0,0004.50,0002.19,0001.79
2023-09-18 10:36:00,SystemResetWarning,0831.3,4.99,000.00,028.6,027.4,000.0,036.8,030.3,14.2,0000.0,0004.60,0002.21,0001.80
2023-09-18 10:37:00,SystemResetWarning,0831.3,5.00,000.00,028.7,027.4,000.0,036.9,030.3,14.1,0000.0,0004.56,0002.20,0001.80
2023-09-18 10:38:00,SystemResetWarning,0831.3,5.01,000.00,028.7,027.4,000.0,036.9,030.3,14.2,0000.0,0004.58,0002.23,0001.81
2023-09-18 10:39:00,SystemResetWarning,0831.3,5.01,000.00,028.7,027.4,000.0,036.9,030.3,13.8,0000.0,0004.65,0002.27,0001.83
2023-09-18 10:40:00,SystemResetWarning,0831.3,5.01,000.00,028.7,027.4,000.0,036.9,030.3,13.4,0000.0,0004.23,0002.30,0001.84
2023-09-18 10:41:00,SystemResetWarning,0831.3,5.00,000.00,028.7,027.4,000.0,036.9,030.3,13.3,0000.0,0003.95,0002.34,0001.85
2023-09-18 10:42:00,SystemResetWarning,0831.2,4.99,000.00,028.7,027.4,000.0,036.9,030.3,14.4,0000.0,0004.00,0002.36,0001.86
2023-09-18 10:43:00,SystemResetWarning,0831.2,4.99,000.00,028.7,027.1,000.0,036.9,030.3,14.8,0000.0,0004.00,0002.37,0001.85
2023-09-18 10:44:00,SystemResetWarning,0831.2,5.00,000.00,028.6,025.3,000.0,036.9,029.7,14.7,0000.0,0003.99,0002.39,0001.87
2023-09-18 10:45:00,SystemResetWarning,0831.2,5.02,000.00,028.5,024.4,000.0,036.8,029.6,14.7,0000.0,0003.67,0002.37,0001.89
2023-09-18 10:46:00,SystemResetWarning,0831.2,4.99,000.00,028.4,024.5,000.0,036.8,029.5,14.5,0000.0,0003.40,0002.37,0001.90
2023-09-18 10:47:00,SystemResetWarning,0831.2,4.99,000.00,028.3,024.7,000.0,036.8,029.4,14.4,0000.0,0003.45,0002.40,0001.90
2023-09-18 10:48:00,SystemResetWarning,0831.3,5.01,000.00,028.2,025.1,000.0,036.8,029.5,14.7,0000.0,0003.48,0002.42,0001.92
2023-09-18 10:49:00,SystemResetWarning,0831.2,5.01,000.00,028.2,025.4,000.0,036.7,029.5,15.5,0000.0,0003.43,0002.42,0001.93
2023-09-18 10:50:00,SystemResetWarning,0831.2,5.01,000.00,028.2,025.6,000.0,036.7,029.6,15.7,0000.0,0003.42,0002.41,0001.93
2023-09-18 10:51:00,SystemResetWarning,0831.2,4.99,000.00,028.2,025.9,000.0,036.7,029.6,15.0,0000.0,0003.43,0002.42,0001.94
2023-09-18 10:52:00,SystemResetWarning,0831.3,5.00,000.00,028.2,026.1,000.0,036.7,029.7,14.9,0000.0,0003.44,0002.41,0001.94
2023-09-18 10:53:00,SystemResetWarning,0831.3,5.00,000.00,028.2,026.3,000.0,036.7,029.7,15.3,0000.0,0003.52,0002.43,0001.94
2023-09-18 10:54:00,SystemResetWarning,0831.3,5.00,000.00,028.2,026.4,000.0,036.6,029.7,15.4,0000.0,0003.45,0002.39,0001.94
2023-09-18 10:55:00,SystemResetWarning,0831.3,5.01,000.00,028.2,026.5,000.0,036.6,029.8,15.6,0000.0,0003.37,0002.38,0001.94
2023-09-18 10:56:00,SystemResetWarning,0831.3,5.00,000.00,028.2,026.6,000.0,036.6,029.8,14.8,0000.0,0003.36,0002.37,0001.93
2023-09-18 10:57:00,SystemResetWarning,0831.3,4.99,000.00,028.2,026.7,000.0,036.6,029.8,14.8,0000.0,0004.03,0002.34,0001.92
2023-09-18 10:58:00,SystemResetWarning,0831.3,5.00,000.00,028.2,026.8,000.0,036.6,029.9,15.1,0000.0,0004.00,0002.28,0001.92
2023-09-18 10:59:00,SystemResetWarning,0831.3,5.00,000.00,028.3,026.8,000.0,036.6,029.9,14.9,0000.0,0003.97,0002.27,0001.91
